Flag for U.S.A. Weather past 2 weeks in New Salem, North Dakota, U.S.A.

Now
75 °F

Scattered clouds.


Feels Like: 77 °F
Forecast: 64 / 76 °F
Wind: 8 mph from East

Location: Bismarck Municipal Airport

Current Time: Jun 29, 2015 at 11:07:47 PM

Latest Report: Jun 29, 2015 at 9:52 PM


Visibility: 10 mi

Pressure: 29.87 "Hg

Humidity: 71%

Dew point: 65 °F

Location of New SalemLocation

Historic Weather in New Salem — Graph

°F

New Salem temperature yesterday

Maximum temperature yesterday: 82 °F (at 1:52 PM)
Minimum temperature yesterday: 60 °F (at 5:52 AM)
Average temperature yesterday: 71 °F

Past Weeks' High & Low Weather Summary

 TemperatureHumidityPressure
High92 °F (Jun 29, 3:52 PM)100% (Jun 22, 3:52 AM)30.22 "Hg (Jun 22, 3:52 AM)
Low50 °F (Jun 23, 5:52 AM)28% (Jun 29, 3:52 PM)29.66 "Hg (Jun 19, 8:52 PM)
Average67 °F70%29.99 "Hg
* Reported Jun 14 9:52 PM — Jun 29 9:52 PM, New Salem, Weather by CustomWeather, © 2015

Note: Actual official high and low records may vary slightly from our data, if they occured in-between our weather recording intervals... More about our weather records

Advertising

New Salem weather history for previous 24 hours

 ConditionsComfort  
Time TempWeatherWind HumidityBarometerVisibility
9:52 PM
Mon, Jun 29
75 °FScattered clouds.8 mph71%29.87 "Hg10 mi
8:52 PM81 °FScattered clouds.7 mph60%29.87 "Hg10 mi
7:52 PM85 °FSunny.5 mph50%29.86 "Hg10 mi
6:52 PM90 °FSunny.7 mph33%29.87 "Hg10 mi
5:52 PM91 °FSunny.6 mph31%29.90 "Hg10 mi
4:52 PM92 °FSunny.7 mph28%29.90 "Hg10 mi
3:52 PM92 °FPassing clouds.9 mph28%29.92 "Hg10 mi
2:52 PM90 °FScattered clouds.9 mph32%29.93 "Hg10 mi
1:52 PM90 °FPartly sunny.13 mph32%29.93 "Hg9 mi
12:52 PM87 °FScattered clouds.12 mph37%29.94 "Hg10 mi
11:52 AM85 °FSunny.12 mph40%29.94 "Hg10 mi
10:52 AM80 °FSunny.5 mph54%29.95 "Hg10 mi
9:52 AM76 °FSunny.5 mph60%29.96 "Hg10 mi
8:52 AM70 °FSunny.5 mph68%29.96 "Hg9 mi
7:52 AM64 °FSunny.3 mph81%29.96 "Hg7 mi
6:52 AM60 °FSunny.No wind86%29.96 "Hg7 mi
5:52 AM58 °FFog.3 mph93%29.96 "Hg6 mi
4:52 AM59 °FClear.3 mph90%29.95 "Hg8 mi
3:52 AM60 °FClear.3 mph90%29.95 "Hg7 mi
2:52 AM61 °FClear.3 mph87%29.95 "Hg7 mi
1:52 AM62 °FClear.3 mph86%29.96 "Hg7 mi
12:52 AM61 °FClear.No wind87%29.95 "Hg8 mi
11:52 PM
Sun, Jun 28
65 °FClear.3 mph81%29.96 "Hg7 mi
Weather by CustomWeather, © 2015

See weather overviewHow to use our weather pages